Location: College Park
(38.9810°N, 76.9370°W)
Time: 10:20:07
(UTC-04:00)

Hubble Space Telescope - Pass Details

Date: 06 January 2018
Orbit: 537 x 541 km, 28.5° (Epoch: 24 April)

Event Time Altitude Azimuth Distance (km) Brightness Sun altitude
Exits shadow 06:23:41 - 238° (WSW) 2,132 3.5 -12.1°
Reaches altitude 10° 06:24:51 10° 228° (SW) 1,786 3.1 -11.8°
Maximum altitude 06:27:44 18° 184° (S) 1,331 3.0 -11.3°
Drops below altitude 10° 06:30:38 10° 139° (SE) 1,783 4.5 -10.8°
Sets 06:33:24 0° 121° (ESE) 2,673 6.3 -10.3°
